Home > Time Zones > World Clock > Weather > U.S.A. > Gary > Past weeks

Flag for U.S.A. Weather past 2 weeks in Gary, Indiana, U.S.A.

Now
65 °F

Sunny.


Feels Like: 65 °F
Forecast: 47 / 67 °F
Wind: 7 mph from Southwest

Location: Lansing Municipal Airport

Current Time: Sep 17, 2014 at 11:38:09 AM

Latest Report: Sep 17, 2014 at 11:15 AM


Visibility: 10 mi

Pressure: 30.04 "Hg

Humidity: 53%

Dew point: 47 °F

Location of GaryLocation

Historic Weather in Gary — Graph

°F

Gary temperature yesterday

Maximum temperature yesterday: 66 °F (at 3:55 PM)
Minimum temperature yesterday: 46 °F (at 6:35 AM)
Average temperature yesterday: 55 °F

Past Weeks' High & Low Weather Summary

 TemperatureHumidityPressure
High87 °F (Sep 5, 2:35 PM)100% (Sep 17, 5:15 AM)30.37 "Hg (Sep 17, 5:15 AM)
Low40 °F (Sep 13, 6:15 AM)38% (Sep 7, 1:55 PM)29.58 "Hg (Sep 10, 2:35 PM)
Average62 °F79%30.09 "Hg
* Reported Sep 3 7:35 AM — Sep 17 10:15 AM, Gary, Weather by CustomWeather, © 2014

Note: Actual official high and low records may vary slightly from our data, if they occured in-between our weather recording intervals... More about our weather records

Advertising

Gary weather history for previous 24 hours

 ConditionsComfort  
Time TempWeatherWind HumidityBarometerVisibility
10:15 AM
Sep 17
62 °FSunny.No wind63%30.04 "Hg10 mi
9:55 AM60 °FSunny.No wind73%30.04 "Hg10 mi
9:35 AM58 °FSunny.No wind78%30.04 "Hg10 mi
9:15 AM56 °FSunny.No wind81%30.04 "Hg10 mi
8:55 AM54 °FSunny.No wind89%30.04 "Hg7 mi
8:35 AM52 °FSunny.No wind92%30.05 "Hg7 mi
8:15 AM49 °FFog.No wind97%30.05 "Hg5 mi
7:55 AM47 °FFog.No wind99%30.06 "Hg5 mi
7:35 AM46 °FFog.No wind99%30.06 "Hg5 mi
6:55 AM43 °FSunny.No wind99%30.06 "Hg7 mi
6:35 AM42 °FSunny.No wind98%30.06 "Hg7 mi
6:15 AM42 °FClear.No wind98%30.06 "Hg10 mi
5:55 AM43 °FClear.No wind99%30.06 "Hg10 mi
5:35 AM43 °FClear.No wind99%30.06 "Hg10 mi
5:15 AM42 °FFog.No wind100%30.05 "Hg2 mi
4:55 AM42 °FFog.No wind98%30.05 "Hg0 mi
4:35 AM44 °FFog.No wind98%30.06 "Hg4 mi
4:15 AM44 °FFog.No wind98%30.06 "Hg1 mi
3:55 AM43 °FFog.No wind98%30.07 "Hg1 mi
3:35 AM44 °FFog.No wind99%30.07 "Hg1 mi
3:15 AM45 °FFog.No wind99%30.07 "Hg5 mi
2:55 AM44 °FFog.No wind99%30.07 "Hg1 mi
2:35 AM45 °FClear.No wind98%30.08 "Hg7 mi
2:15 AM45 °FClear.No wind99%30.08 "Hg10 mi
1:55 AM45 °FFog.No wind97%30.08 "Hg4 mi
1:35 AM47 °FClear.No wind97%30.08 "Hg10 mi
1:15 AM47 °FClear.No wind97%30.09 "Hg7 mi
12:55 AM47 °FClear.No wind97%30.09 "Hg10 mi
12:35 AM47 °FClear.No wind95%30.09 "Hg10 mi
12:15 AM48 °FClear.No wind97%30.10 "Hg7 mi
11:55 PM
Sep 16
47 °FClear.No wind97%30.10 "Hg10 mi
11:35 PM47 °FClear.No wind96%30.10 "Hg10 mi
11:15 PM48 °FClear.No wind95%30.10 "Hg10 mi
10:55 PM50 °FClear.No wind93%30.10 "Hg10 mi
10:15 PM50 °FClear.No wind92%30.10 "Hg10 mi
9:55 PM50 °FClear.No wind90%30.11 "Hg10 mi
9:35 PM51 °FClear.No wind88%30.11 "Hg10 mi
9:15 PM54 °FClear.No wind81%30.10 "Hg10 mi
8:55 PM54 °FClear.No wind79%30.11 "Hg10 mi
8:35 PM52 °FClear.No wind86%30.11 "Hg10 mi
8:15 PM51 °FClear.No wind84%30.10 "Hg10 mi
7:55 PM54 °FClear.No wind78%30.10 "Hg10 mi
7:35 PM54 °FClear.No wind78%30.10 "Hg10 mi
7:15 PM57 °FClear.3 mph70%30.09 "Hg10 mi
6:55 PM62 °FSunny.3 mph54%30.10 "Hg10 mi
6:15 PM63 °FSunny.3 mph50%30.10 "Hg10 mi
5:55 PM64 °FSunny.5 mph48%30.11 "Hg10 mi
5:15 PM65 °FSunny.5 mph47%30.11 "Hg10 mi
4:55 PM65 °FSunny.No wind46%30.11 "Hg10 mi
4:15 PM66 °FScattered clouds.5 mph46%30.12 "Hg10 mi
3:55 PM66 °FSunny.No wind45%30.12 "Hg10 mi
3:35 PM66 °FSunny.5 mph46%30.13 "Hg10 mi
3:15 PM66 °FScattered clouds.6 mph48%30.13 "Hg10 mi
2:55 PM66 °FSunny.6 mph47%30.13 "Hg10 mi
2:35 PM63 °FSunny.5 mph48%30.14 "Hg10 mi
2:15 PM65 °FSunny.5 mph47%30.15 "Hg10 mi
1:55 PM64 °FScattered clouds.No wind48%30.16 "Hg10 mi
1:15 PM65 °FScattered clouds.No wind48%30.17 "Hg10 mi
12:55 PM64 °FSunny.3 mph51%30.18 "Hg10 mi
12:35 PM64 °FScattered clouds.7 mph52%30.18 "Hg10 mi
12:15 PM63 °FPartly sunny.No wind49%30.19 "Hg10 mi
11:55 AM62 °FPartly sunny.No wind52%30.19 "Hg10 mi
11:15 AM61 °FPartly sunny.No wind53%30.20 "Hg10 mi
Weather by CustomWeather, © 2014

See weather overviewHow to use our weather pages